WA7SB-7 Weather Reports


Display with metric or nautical units.
time (UTC)temp
F
wind
direction
speed
MPH
gust
MPH
rain 1hr
in
rain 24hr
in
rain mn
in
humidity
%
barometer
mb
20260831225533 62 246 2.0 9.0 0.00 0.00 0.00 82 1011.7
20260831225413 62 306 1.0 9.0 0.00 0.00 0.00 84 1011.7
20260831225015 62 107 1.0 9.0 0.00 0.00 0.00 83 1011.7
20260831224914 62 106 2.0 9.0 0.00 0.00 0.00 83 1011.7
20260831224516 62 318 1.0 8.0 0.00 0.00 0.00 83 1011.8
20260831224416 62 340 1.0 8.0 0.00 0.00 0.00 83 1011.9
20260831224017 62 335 2.0 5.0 0.00 0.00 0.00 83 1011.8
20260831223915 62 260 3.0 5.0 0.00 0.00 0.00 82 1011.8
20260831223517 62 348 1.0 5.0 0.00 0.00 0.00 83 1011.7
20260831223416 62 133 1.0 5.0 0.00 0.00 0.00 83 1011.7
20260831223017 62 309 2.0 5.0 0.00 0.00 0.00 83 1011.7
20260831222936 62 311 2.0 5.0 0.00 0.00 0.00 83 1011.7
20260831222533 62 295 2.0 5.0 0.00 0.00 0.00 82 1011.7
20260831222419 62 18 1.0 5.0 0.00 0.00 0.00 82 1011.8
20260831222019 62 265 1.0 6.0 0.00 0.00 0.00 82 1011.8
20260831221924 62 307 1.0 6.0 0.00 0.00 0.00 82 1011.8
20260831221520 63 131 1.0 6.0 0.00 0.00 0.00 81 1011.7
20260831221419 63 338 2.0 6.0 0.00 0.00 0.00 80 1011.7
20260831221020 63 63 2.0 3.0 0.00 0.00 0.00 80 1011.8
20260831220922 63 9 1.0 3.0 0.00 0.00 0.00 80 1011.7
20260831220528 63 39 2.0 5.0 0.00 0.00 0.00 80 1011.7
20260831220428 63 295 1.0 5.0 0.00 0.00 0.00 81 1011.8
20260831220023 63 280 2.0 5.0 0.00 0.00 0.00 81 1011.8
20260831215924 63 228 2.0 5.0 0.00 0.00 0.00 81 1011.8
20260831215526 63 96 2.0 7.0 0.00 0.00 0.00 81 1011.7
20260831215428 63 17 2.0 7.0 0.00 0.00 0.00 81 1011.7
20260831215029 63 299 1.0 8.0 0.00 0.00 0.00 80 1011.8
20260831214930 63 168 2.0 8.0 0.00 0.00 0.00 81 1011.8
20260831214530 64 79 2.0 8.0 0.00 0.00 0.00 80 1011.7
20260831214431 64 309 2.0 8.0 0.00 0.00 0.00 81 1011.8
20260831214013 65 295 2.0 6.0 0.00 0.00 0.00 79 1011.7
20260831213915 65 331 2.0 5.0 0.00 0.00 0.00 80 1011.7
20260831213517 65 293 1.0 6.0 0.00 0.00 0.00 80 1011.6
20260831213416 65 97 1.0 6.0 0.00 0.00 0.00 80 1011.6
20260831213017 66 295 3.0 6.0 0.00 0.00 0.00 79 1011.6
20260831212919 66 264 3.0 6.0 0.00 0.00 0.00 79 1011.6
20260831212520 66 261 1.0 4.0 0.00 0.00 0.00 80 1011.5
20260831212423 66 56 1.0 4.0 0.00 0.00 0.00 80 1011.5
20260831212020 66 331 1.0 4.0 0.00 0.00 0.00 80 1011.4
20260831211926 66 99 2.0 4.0 0.00 0.00 0.00 80 1011.5
20260831211525 65 214 1.0 4.0 0.00 0.00 0.00 81 1011.5
20260831211430 65 7 1.0 4.0 0.00 0.00 0.00 80 1011.6
20260831211029 66 146 2.0 4.0 0.00 0.00 0.00 78 1011.4
20260831210928 66 302 2.0 4.0 0.00 0.00 0.00 78 1011.4
20260831210530 66 189 1.0 3.0 0.00 0.00 0.00 79 1011.4
20260831210429 67 219 1.0 3.0 0.00 0.00 0.00 78 1011.4
20260831210022 67 358 2.0 3.0 0.00 0.00 0.00 78 1011.4
20260831205922 67 326 1.0 3.0 0.00 0.00 0.00 79 1011.4
20260831205524 66 7 1.0 4.0 0.00 0.00 0.00 80 1011.4
20260831205425 66 85 1.0 4.0 0.00 0.00 0.00 81 1011.4
20260831205028 65 262 1.0 4.0 0.00 0.00 0.00 80 1011.4
20260831204929 65 193 1.0 4.0 0.00 0.00 0.00 80 1011.4
20260831204529 66 89 1.0 3.0 0.00 0.00 0.00 79 1011.5
20260831204412 66 241 1.0 3.0 0.00 0.00 0.00 79 1011.5
20260831204015 67 276 1.0 3.0 0.00 0.00 0.00 78 1011.6
20260831203916 66 226 1.0 3.0 0.00 0.00 0.00 78 1011.6
20260831203519 66 275 1.0 4.0 0.00 0.00 0.00 80 1011.6
20260831203419 66 50 1.0 4.0 0.00 0.00 0.00 79 1011.5
20260831203020 66 224 1.0 4.0 0.00 0.00 0.00 79 1011.6
20260831202920 66 359 2.0 4.0 0.00 0.00 0.00 78 1011.6
20260831202521 66 296 1.0 4.0 0.00 0.00 0.00 79 1011.6
20260831202421 65 132 1.0 4.0 0.00 0.00 0.00 79 1011.6
20260831202024 65 276 1.0 3.0 0.00 0.00 0.00 79 1011.6
20260831201926 65 285 1.0 3.0 0.00 0.00 0.00 80 1011.7
20260831201528 65 298 1.0 3.0 0.00 0.00 0.00 79 1011.6
20260831201429 65 298 1.0 3.0 0.00 0.00 0.00 78 1011.6
20260831201026 65 129 1.0 3.0 0.00 0.00 0.00 78 1011.6
20260831200931 66 288 1.0 3.0 0.00 0.00 0.00 77 1011.5
20260831200530 67 129 1.0 2.0 0.00 0.00 0.00 76 1011.5
20260831200412 67 77 1.0 3.0 0.00 0.00 0.00 76 1011.6
20260831200024 66 305 1.0 3.0 0.00 0.00 0.00 78 1011.6
20260831195928 66 130 0.0 3.0 0.00 0.00 0.00 78 1011.6
20260831195530 65 182 1.0 4.0 0.00 0.00 0.00 77 1011.7
20260831195430 65 271 1.0 4.0 0.00 0.00 0.00 77 1011.7
20260831195031 65 319 1.0 4.0 0.00 0.00 0.00 76 1011.7
20260831194930 66 269 1.0 4.0 0.00 0.00 0.00 76 1011.7
20260831194516 66 69 1.0 2.0 0.00 0.00 0.00 76 1011.7
20260831194419 66 311 1.0 2.0 0.00 0.00 0.00 75 1011.7
20260831194022 66 301 1.0 4.0 0.00 0.00 0.00 76 1011.6
20260831193923 66 295 1.0 4.0 0.00 0.00 0.00 76 1011.7
20260831193527 66 50 2.0 4.0 0.00 0.00 0.00 75 1011.6
20260831193426 66 269 1.0 3.0 0.00 0.00 0.00 75 1011.6
20260831193029 66 61 1.0 6.0 0.00 0.00 0.00 75 1011.7
20260831192929 66 262 2.0 6.0 0.00 0.00 0.00 73 1011.6
20260831192531 66 243 1.0 6.0 0.00 0.00 0.00 76 1011.6
20260831192413 66 290 1.0 6.0 0.00 0.00 0.00 75 1011.5
20260831192016 67 236 1.0 4.0 0.00 0.00 0.00 73 1011.4
20260831191917 67 275 2.0 4.0 0.00 0.00 0.00 73 1011.4
20260831191521 67 236 1.0 3.0 0.00 0.00 0.00 72 1011.4
20260831191420 67 259 1.0 3.0 0.00 0.00 0.00 72 1011.4
20260831191020 67 307 1.0 3.0 0.00 0.00 0.00 71 1011.2
20260831190922 67 222 1.0 3.0 0.00 0.00 0.00 73 1011.3
20260831190527 67 286 1.0 3.0 0.00 0.00 0.00 70 1011.3
20260831190427 68 253 1.0 3.0 0.00 0.00 0.00 71 1011.3
20260831190016 68 290 1.0 2.0 0.00 0.00 0.00 68 1011.4
20260831185918 68 276 1.0 2.0 0.00 0.00 0.00 69 1011.5
20260831185516 67 286 1.0 4.0 0.00 0.00 0.00 71 1011.6
20260831185423 67 311 1.0 4.0 0.00 0.00 0.00 69 1011.6
20260831185020 67 294 1.0 4.0 0.00 0.00 0.00 72 1011.5
20260831184919 67 262 1.0 4.0 0.00 0.00 0.00 70 1011.4
20260831184520 67 131 1.0 3.0 0.00 0.00 0.00 71 1011.6
20260831184419 67 233 1.0 3.0 0.00 0.00 0.00 71 1011.6
20260831184021 66 247 0.0 3.0 0.00 0.00 0.00 74 1011.6
20260831183920 66 259 0.0 3.0 0.00 0.00 0.00 75 1011.7
20260831183521 66 224 1.0 2.0 0.00 0.00 0.00 74 1011.7
20260831183420 65 237 0.0 2.0 0.00 0.00 0.00 74 1011.7
20260831183020 65 115 1.0 3.0 0.00 0.00 0.00 74 1011.6
20260831182920 65 295 1.0 4.0 0.00 0.00 0.00 75 1011.6
20260831182520 65 289 1.0 4.0 0.00 0.00 0.00 76 1011.7
20260831182422 64 204 1.0 4.0 0.00 0.00 0.00 76 1011.7
20260831182023 65 204 0.0 3.0 0.00 0.00 0.00 74 1011.8
20260831181924 65 245 1.0 3.0 0.00 0.00 0.00 73 1011.7
20260831181524 67 297 1.0 3.0 0.00 0.00 0.00 70 1011.8
20260831181426 67 167 1.0 3.0 0.00 0.00 0.00 71 1011.7
20260831181027 68 300 1.0 3.0 0.00 0.00 0.00 68 1011.7
20260831180928 68 293 1.0 3.0 0.00 0.00 0.00 68 1011.7
20260831180532 68 102 0.0 2.0 0.00 0.00 0.00 70 1011.7
20260831180430 67 153 1.0 2.0 0.00 0.00 0.00 68 1011.7
20260831180023 67 204 1.0 3.0 0.00 0.00 0.00 69 1011.6
20260831175923 67 285 1.0 3.0 0.00 0.00 0.00 72 1011.5
20260831175522 66 22 1.0 3.0 0.00 0.00 0.00 71 1011.4
20260831175427 66 263 1.0 3.0 0.00 0.00 0.00 71 1011.4
20260831175024 66 277 1.0 2.0 0.00 0.00 0.00 71 1011.6
20260831174928 66 293 0.0 3.0 0.00 0.00 0.00 71 1011.7
20260831174526 65 266 1.0 4.0 0.00 0.00 0.00 72 1011.7
20260831174428 65 302 0.0 4.0 0.00 0.00 0.00 75 1011.7
20260831174030 65 264 2.0 4.0 0.00 0.00 0.00 73 1011.7
20260831173931 65 307 1.0 4.0 0.00 0.00 0.00 74 1011.7
20260831173534 65 296 2.0 4.0 0.00 0.00 0.00 73 1011.5
20260831173413 65 293 2.0 4.0 0.00 0.00 0.00 72 1011.6
20260831173014 65 275 2.0 4.0 0.00 0.00 0.00 71 1011.7
20260831172916 65 281 1.0 3.0 0.00 0.00 0.00 73 1011.6
20260831172520 65 267 1.0 3.0 0.00 0.00 0.00 73 1011.6
20260831172421 65 278 1.0 2.0 0.00 0.00 0.00 75 1011.6
20260831172026 64 222 1.0 3.0 0.00 0.00 0.00 77 1011.6
20260831171928 64 259 1.0 3.0 0.00 0.00 0.00 77 1011.6
20260831171530 64 310 1.0 3.0 0.00 0.00 0.00 78 1011.5
20260831171412 64 291 1.0 3.0 0.00 0.00 0.00 78 1011.5
20260831171016 64 271 0.0 1.0 0.00 0.00 0.00 84 1011.5
20260831170917 64 271 0.0 1.0 0.00 0.00 0.00 84 1011.6
20260831170522 63 271 0.0 1.0 0.00 0.00 0.00 83 1011.5
20260831170420 63 271 0.0 1.0 0.00 0.00 0.00 83 1011.4
20260831170029 62 271 0.0 1.0 0.00 0.00 0.00 89 1011.4
20260831165929 62 271 0.0 1.0 0.00 0.00 0.00 90 1011.6
20260831165532 61 270 0.0 1.0 0.00 0.00 0.00 92 1011.3
20260831165414 61 270 0.0 1.0 0.00 0.00 0.00 93 1011.3
20260831165013 60 270 0.0 1.0 0.00 0.00 0.00 96 1011.4
20260831164913 60 270 0.0 1.0 0.00 0.00 0.00 95 1011.4
20260831164514 60 264 0.0 1.0 0.00 0.00 0.00 95 1011.4
20260831164436 60 258 0.0 1.0 0.00 0.00 0.00 95 1011.4
20260831164033 59 6 0.0 0.0 0.00 0.00 0.00 97 1011.4
20260831163917 59 6 0.0 0.0 0.00 0.00 0.00 97 1011.4
20260831163518 59 5 0.0 0.0 0.00 0.00 0.00 97 1011.4
20260831163422 58 5 0.0 0.0 0.00 0.00 0.00 97 1011.4
20260831163020 57 6 0.0 0.0 0.00 0.00 0.00 97 1011.4
20260831162920 57 5 0.0 0.0 0.00 0.00 0.00 97 1011.4
20260831162520 56 5 0.0 0.0 0.00 0.00 0.00 97 1011.5
20260831162418 56 5 0.0 0.0 0.00 0.00 0.00 97 1011.6
20260831162022 56 5 0.0 0.0 0.00 0.00 0.00 97 1011.6
20260831161925 56 5 0.0 0.0 0.00 0.00 0.00 97 1011.6
20260831161528 55 6 0.0 0.0 0.00 0.00 0.00 97 1011.7
20260831161428 55 6 0.0 0.0 0.00 0.00 0.00 97 1011.7
20260831161030 55 5 0.0 0.0 0.00 0.00 0.00 97 1011.7
20260831160931 54 6 0.0 0.0 0.00 0.00 0.00 97 1011.7
20260831160516 54 5 0.0 0.0 0.00 0.00 0.00 97 1011.8
20260831160416 54 5 0.0 0.0 0.00 0.00 0.00 97 1011.8
20260831160026 54 5 0.0 0.0 0.00 0.00 0.00 97 1011.8
20260831155928 54 5 0.0 0.0 0.00 0.00 0.00 97 1011.8
20260831155531 53 5 0.0 0.0 0.00 0.00 0.00 97 1011.8
20260831155415 53 6 0.0 0.0 0.00 0.00 0.00 97 1011.9
20260831155020 53 6 0.0 0.0 0.00 0.00 0.00 97 1011.9
20260831154924 53 5 0.0 0.0 0.00 0.00 0.00 97 1011.9
20260831154527 53 5 0.0 0.0 0.00 0.00 0.00 97 1011.9
20260831154431 53 5 0.0 0.0 0.00 0.00 0.00 96 1011.9
20260831154034 53 6 0.0 0.0 0.00 0.00 0.00 96 1011.9
20260831153915 52 5 0.0 0.0 0.00 0.00 0.00 96 1011.9
20260831153522 52 5 0.0 0.0 0.00 0.00 0.00 96 1011.9
20260831153423 52 5 0.0 0.0 0.00 0.00 0.00 96 1012.0
20260831153025 52 6 0.0 0.0 0.00 0.00 0.00 96 1012.0
20260831152913 52 5 0.0 0.0 0.00 0.00 0.00 96 1012.0
20260831152515 52 5 0.0 0.0 0.00 0.00 0.00 96 1012.1
20260831152419 52 5 0.0 0.0 0.00 0.00 0.00 96 1012.1
20260831152022 51 5 0.0 0.0 0.00 0.00 0.00 96 1012.0
20260831151929 51 5 0.0 0.0 0.00 0.00 0.00 96 1012.1
20260831151530 51 5 0.0 0.0 0.00 0.00 0.00 96 1012.1
20260831151416 51 6 0.0 0.0 0.00 0.00 0.00 96 1012.0
20260831151016 51 6 0.0 0.0 0.00 0.00 0.00 96 1012.0
20260831150919 51 6 0.0 0.0 0.00 0.00 0.00 96 1012.0
20260831150524 51 5 0.0 0.0 0.00 0.00 0.00 96 1012.0
20260831150426 51 5 0.0 0.0 0.00 0.00 0.00 96 1012.0
20260831150018 50 5 0.0 0.0 0.00 0.00 0.00 96 1012.0
20260831145918 50 5 0.0 0.0 0.00 0.00 0.00 96 1011.9
20260831145524 50 5 0.0 0.0 0.00 0.00 0.00 96 1012.0
20260831145426 50 5 0.0 0.0 0.00 0.00 0.00 96 1012.0
20260831145032 50 5 0.0 0.0 0.00 0.00 0.00 96 1011.9
20260831144915 50 5 0.0 0.0 0.00 0.00 0.00 96 1011.9
20260831144520 50 5 0.0 0.0 0.00 0.00 0.00 96 1011.9
20260831144421 50 5 0.0 0.0 0.00 0.00 0.00 96 1011.9
20260831144024 50 5 0.0 0.0 0.00 0.00 0.00 95 1011.9
20260831143925 50 6 0.0 0.0 0.00 0.00 0.00 95 1011.9
20260831143530 50 5 0.0 0.0 0.00 0.00 0.00 96 1011.8
20260831143427 50 5 0.0 0.0 0.00 0.00 0.00 96 1011.8
20260831143030 50 5 0.0 0.0 0.00 0.00 0.00 96 1011.9
20260831142913 50 5 0.0 0.0 0.00 0.00 0.00 96 1011.8
20260831142519 50 6 0.0 0.0 0.00 0.00 0.00 96 1011.8
20260831142419 50 5 0.0 0.0 0.00 0.00 0.00 95 1011.8
20260831142024 50 5 0.0 0.0 0.00 0.00 0.00 95 1011.7
20260831141927 50 5 0.0 0.0 0.00 0.00 0.00 95 1011.7
20260831141531 50 6 0.0 0.0 0.00 0.00 0.00 95 1011.7
20260831141415 51 6 0.0 0.0 0.00 0.00 0.00 95 1011.7
20260831141020 51 5 0.0 0.0 0.00 0.00 0.00 95 1011.6
20260831140920 51 5 0.0 0.0 0.00 0.00 0.00 95 1011.6
20260831140527 51 5 0.0 0.0 0.00 0.00 0.00 95 1011.6
20260831140426 51 5 0.0 0.0 0.00 0.00 0.00 95 1011.6
20260831140020 51 5 0.0 0.0 0.00 0.00 0.00 96 1011.5
20260831135924 51 6 0.0 0.0 0.00 0.00 0.00 96 1011.6
20260831135525 51 6 0.0 0.0 0.00 0.00 0.00 96 1011.4
20260831135431 51 5 0.0 0.0 0.00 0.00 0.00 96 1011.5
20260831135016 51 6 0.0 0.0 0.00 0.00 0.00 96 1011.5
20260831134923 51 6 0.0 0.0 0.00 0.00 0.00 96 1011.5
20260831134525 51 5 0.0 0.0 0.00 0.00 0.00 96 1011.6
20260831134426 51 5 0.0 0.0 0.00 0.00 0.00 96 1011.6
20260831134030 51 6 0.0 0.0 0.00 0.00 0.00 96 1011.6
20260831133930 51 6 0.0 0.0 0.00 0.00 0.00 96 1011.6
20260831133516 50 6 0.0 0.0 0.00 0.00 0.00 95 1011.6
20260831133415 50 6 0.0 0.0 0.00 0.00 0.00 95 1011.5
20260831133020 50 6 0.0 0.0 0.00 0.00 0.00 95 1011.6
20260831132918 50 6 0.0 0.0 0.00 0.00 0.00 95 1011.6
20260831132521 51 6 0.0 0.0 0.00 0.00 0.00 96 1011.6
20260831132421 50 5 0.0 0.0 0.00 0.00 0.00 96 1011.6
20260831132023 50 5 0.0 0.0 0.00 0.00 0.00 95 1011.7
20260831131925 50 6 0.0 0.0 0.00 0.00 0.00 95 1011.7
20260831131530 50 6 0.0 0.0 0.00 0.00 0.00 95 1011.8
20260831131431 50 6 0.0 0.0 0.00 0.00 0.00 95 1011.7
20260831131015 50 6 0.0 0.0 0.00 0.00 0.00 95 1011.8
20260831130918 50 6 0.0 0.0 0.00 0.00 0.00 95 1011.8
20260831130524 50 6 0.0 0.0 0.00 0.00 0.00 95 1011.8
20260831130426 50 5 0.0 0.0 0.00 0.00 0.00 95 1011.8
20260831130021 50 6 0.0 0.0 0.00 0.00 0.00 95 1011.9
20260831125920 50 6 0.0 0.0 0.00 0.00 0.00 95 1011.8
20260831125523 51 6 0.0 0.0 0.00 0.00 0.00 95 1011.9
20260831125423 51 6 0.0 0.0 0.00 0.00 0.00 95 1011.8
20260831125028 51 6 0.0 0.0 0.00 0.00 0.00 95 1011.8
20260831124927 51 6 0.0 0.0 0.00 0.00 0.00 95 1011.8
20260831124528 51 5 0.0 0.0 0.00 0.00 0.00 95 1011.8
20260831124413 51 6 0.0 0.0 0.00 0.00 0.00 95 1011.8
20260831124014 51 6 0.0 0.0 0.00 0.00 0.00 95 1011.9
20260831123919 51 5 0.0 0.0 0.00 0.00 0.00 95 1011.9
20260831123522 51 6 0.0 0.0 0.00 0.00 0.00 95 1011.9
20260831123425 51 6 0.0 0.0 0.00 0.00 0.00 95 1012.0
20260831123027 51 5 0.0 0.0 0.00 0.00 0.00 95 1011.9
20260831122915 52 5 0.0 0.0 0.00 0.00 0.00 95 1012.0
20260831122516 52 5 0.0 0.0 0.00 0.00 0.00 95 1012.0
20260831122415 52 6 0.0 0.0 0.00 0.00 0.00 95 1012.0
20260831122020 52 6 0.0 0.0 0.00 0.00 0.00 95 1012.0
20260831121923 52 6 0.0 0.0 0.00 0.00 0.00 95 1012.1
20260831121526 52 6 0.0 0.0 0.00 0.00 0.00 95 1012.1
20260831121428 52 5 0.0 0.0 0.00 0.00 0.00 95 1012.1
20260831121013 52 5 0.0 0.0 0.00 0.00 0.00 95 1012.2
20260831120914 52 5 0.0 0.0 0.00 0.00 0.00 95 1012.2
20260831120522 52 5 0.0 0.0 0.00 0.00 0.00 95 1012.2
20260831120424 52 5 0.0 0.0 0.00 0.00 0.00 95 1012.2
20260831120021 52 5 0.0 0.0 0.00 0.00 0.00 96 1012.2
20260831115923 52 5 0.0 0.0 0.00 0.00 0.00 96 1012.1
20260831115525 52 5 0.0 0.0 0.00 0.00 0.00 95 1012.2
20260831115426 52 5 0.0 0.0 0.00 0.00 0.00 95 1012.2
20260831115030 52 5 0.0 0.0 0.00 0.00 0.00 95 1012.3
20260831114912 52 5 0.0 0.0 0.00 0.00 0.00 95 1012.3
20260831114516 52 5 0.0 0.0 0.00 0.00 0.00 95 1012.3
20260831114417 52 5 0.0 0.0 0.00 0.00 0.00 95 1012.2
20260831114021 52 5 0.0 0.0 0.00 0.00 0.00 96 1012.4
20260831113923 52 5 0.0 0.0 0.00 0.00 0.00 96 1012.4
20260831113530 52 5 0.0 0.0 0.00 0.00 0.00 96 1012.3
20260831113430 52 5 0.0 0.0 0.00 0.00 0.00 96 1012.3
20260831113032 51 5 0.0 0.0 0.00 0.00 0.00 95 1012.3
20260831112914 51 5 0.0 0.0 0.00 0.00 0.00 95 1012.3
20260831112519 51 5 0.0 0.0 0.00 0.00 0.00 95 1012.3
20260831112421 51 5 0.0 0.0 0.00 0.00 0.00 95 1012.3
20260831112024 51 5 0.0 0.0 0.00 0.00 0.00 95 1012.4
20260831111928 51 5 0.0 0.0 0.00 0.00 0.00 95 1012.4
20260831111513 51 5 0.0 0.0 0.00 0.00 0.00 95 1012.5
20260831111415 51 5 0.0 0.0 0.00 0.00 0.00 95 1012.5
20260831111016 51 5 0.0 0.0 0.00 0.00 0.00 95 1012.4
20260831110922 51 5 0.0 0.0 0.00 0.00 0.00 95 1012.4
20260831110524 51 5 0.0 0.0 0.00 0.00 0.00 95 1012.5
20260831110429 51 5 0.0 0.0 0.00 0.00 0.00 95 1012.4
20260831110021 51 5 0.0 0.0 0.00 0.00 0.00 95 1012.5
20260831105924 51 5 0.0 0.0 0.00 0.00 0.00 95 1012.5
20260831105531 51 5 0.0 0.0 0.00 0.00 0.00 95 1012.5
20260831105413 51 5 0.0 0.0 0.00 0.00 0.00 95 1012.5
20260831105020 51 5 0.0 0.0 0.00 0.00 0.00 95 1012.5
20260831104921 51 5 0.0 0.0 0.00 0.00 0.00 95 1012.5
20260831104525 51 5 0.0 0.0 0.00 0.00 0.00 95 1012.5
20260831104426 51 5 0.0 0.0 0.00 0.00 0.00 95 1012.5
20260831104030 51 5 0.0 0.0 0.00 0.00 0.00 95 1012.5
20260831103913 51 5 0.0 0.0 0.00 0.00 0.00 95 1012.5
20260831103519 51 5 0.0 0.0 0.00 0.00 0.00 94 1012.5
20260831103418 51 5 0.0 0.0 0.00 0.00 0.00 94 1012.4
20260831103023 51 5 0.0 0.0 0.00 0.00 0.00 95 1012.4
20260831102926 51 5 0.0 0.0 0.00 0.00 0.00 95 1012.5
20260831102532 51 5 0.0 0.0 0.00 0.00 0.00 95 1012.4
20260831102413 51 5 0.0 0.0 0.00 0.00 0.00 94 1012.5
20260831102020 51 5 0.0 0.0 0.00 0.00 0.00 94 1012.5
20260831101921 51 5 0.0 0.0 0.00 0.00 0.00 94 1012.5
20260831101527 51 5 0.0 0.0 0.00 0.00 0.00 94 1012.5
20260831101430 51 5 0.0 0.0 0.00 0.00 0.00 94 1012.5
20260831101016 51 5 0.0 0.0 0.00 0.00 0.00 94 1012.6
20260831100920 51 5 0.0 0.0 0.00 0.00 0.00 94 1012.6
20260831100527 52 5 0.0 0.0 0.00 0.00 0.00 94 1012.7
20260831100430 52 5 0.0 0.0 0.00 0.00 0.00 94 1012.6
20260831100025 52 5 0.0 0.0 0.00 0.00 0.00 94 1012.7
20260831095925 52 5 0.0 0.0 0.00 0.00 0.00 94 1012.7
20260831095527 52 5 0.0 0.0 0.00 0.00 0.00 94 1012.8
20260831095412 52 5 0.0 0.0 0.00 0.00 0.00 94 1012.7
20260831095019 52 5 0.0 0.0 0.00 0.00 0.00 95 1012.8
20260831094918 52 5 0.0 0.0 0.00 0.00 0.00 95 1012.8
20260831094520 52 5 0.0 0.0 0.00 0.00 0.00 94 1012.9
20260831094425 52 5 0.0 0.0 0.00 0.00 0.00 94 1012.9
20260831094024 52 5 0.0 0.0 0.00 0.00 0.00 95 1012.9
20260831093929 52 5 0.0 0.0 0.00 0.00 0.00 95 1012.9
20260831093530 52 5 0.0 0.0 0.00 0.00 0.00 95 1013.0
20260831093415 52 5 0.0 0.0 0.00 0.00 0.00 95 1013.0
20260831093017 52 5 0.0 0.0 0.00 0.00 0.00 94 1013.1
20260831092916 52 5 0.0 0.0 0.00 0.00 0.00 94 1013.1
20260831092519 52 5 0.0 0.0 0.00 0.00 0.00 94 1013.2
20260831092418 52 5 0.0 0.0 0.00 0.00 0.00 94 1013.1
20260831092022 52 5 0.0 0.0 0.00 0.00 0.00 94 1013.1
20260831091924 52 5 0.0 0.0 0.00 0.00 0.00 94 1013.1
20260831091529 52 5 0.0 0.0 0.00 0.00 0.00 94 1013.2
20260831091412 52 5 0.0 0.0 0.00 0.00 0.00 94 1013.2
20260831091018 52 5 0.0 0.0 0.00 0.00 0.00 94 1013.3
20260831090919 52 5 0.0 0.0 0.00 0.00 0.00 94 1013.3
20260831090525 52 5 0.0 0.0 0.00 0.00 0.00 94 1013.3
20260831090427 52 5 0.0 0.0 0.00 0.00 0.00 94 1013.3
20260831090021 52 5 0.0 0.0 0.00 0.00 0.00 94 1013.3
20260831085922 52 5 0.0 0.0 0.00 0.00 0.00 94 1013.4
20260831085525 52 5 0.0 0.0 0.00 0.00 0.00 94 1013.3
20260831085427 52 5 0.0 0.0 0.00 0.00 0.00 94 1013.4
20260831085031 52 5 0.0 0.0 0.00 0.00 0.00 94 1013.5
20260831084914 52 5 0.0 0.0 0.00 0.00 0.00 94 1013.5
20260831084520 52 5 0.0 0.0 0.00 0.00 0.00 94 1013.5
20260831084421 52 5 0.0 0.0 0.00 0.00 0.00 94 1013.5
20260831084026 52 5 0.0 0.0 0.00 0.00 0.00 94 1013.5
20260831083928 52 5 0.0 0.0 0.00 0.00 0.00 94 1013.5
20260831083534 52 5 0.0 0.0 0.00 0.00 0.00 94 1013.5
20260831083415 52 5 0.0 0.0 0.00 0.00 0.00 94 1013.7
20260831083017 52 5 0.0 0.0 0.00 0.00 0.00 94 1013.8
20260831082918 52 5 0.0 0.0 0.00 0.00 0.00 94 1013.8
20260831082522 52 5 0.0 0.0 0.00 0.00 0.00 94 1013.8
20260831082422 52 5 0.0 0.0 0.00 0.00 0.00 94 1013.9
20260831082022 52 5 0.0 0.0 0.00 0.00 0.00 94 1013.8
20260831081926 52 5 0.0 0.0 0.00 0.00 0.00 94 1013.8
20260831081524 52 5 0.0 0.0 0.00 0.00 0.00 94 1013.9
20260831081431 52 5 0.0 0.0 0.00 0.00 0.00 94 1013.9
20260831081032 52 5 0.0 0.0 0.00 0.00 0.00 94 1014.0
20260831080917 52 5 0.0 0.0 0.00 0.00 0.00 94 1014.1
20260831080520 52 5 0.0 0.0 0.00 0.00 0.00 94 1014.1
20260831080419 52 5 0.0 0.0 0.00 0.00 0.00 94 1014.0
20260831080030 52 5 0.0 0.0 0.00 0.00 0.00 94 1014.1
20260831075932 52 5 0.0 0.0 0.00 0.00 0.00 94 1014.1
20260831075531 52 5 0.0 0.0 0.00 0.00 0.00 93 1014.1
20260831075431 52 5 0.0 0.0 0.00 0.00 0.00 93 1014.1
20260831075033 52 5 0.0 0.0 0.00 0.00 0.00 93 1014.2
20260831074914 52 5 0.0 0.0 0.00 0.00 0.00 93 1014.1
20260831074516 52 5 0.0 0.0 0.00 0.00 0.00 93 1014.1
20260831074419 52 5 0.0 0.0 0.00 0.00 0.00 93 1014.1
20260831074022 52 5 0.0 0.0 0.00 0.00 0.00 93 1014.2
20260831073923 52 5 0.0 0.0 0.00 0.00 0.00 93 1014.1
20260831073529 52 5 0.0 0.0 0.00 0.00 0.00 93 1014.2
20260831073429 52 5 0.0 0.0 0.00 0.00 0.00 93 1014.2
20260831073030 53 5 0.0 0.0 0.00 0.00 0.00 93 1014.2
20260831072931 53 5 0.0 0.0 0.00 0.00 0.00 93 1014.2
20260831072517 52 5 0.0 0.0 0.00 0.00 0.00 93 1014.3
20260831072419 52 5 0.0 0.0 0.00 0.00 0.00 93 1014.3
20260831072025 53 5 0.0 0.0 0.00 0.00 0.00 93 1014.4
20260831071927 53 5 0.0 0.0 0.00 0.00 0.00 93 1014.4
20260831071532 53 5 0.0 0.0 0.00 0.00 0.00 93 1014.4
20260831071414 53 5 0.0 0.0 0.00 0.00 0.00 93 1014.4
20260831071020 53 5 0.0 0.0 0.00 0.00 0.00 93 1014.4
20260831070922 53 5 0.0 0.0 0.00 0.00 0.00 93 1014.4
20260831070529 53 5 0.0 0.0 0.00 0.00 0.00 93 1014.5
20260831070428 53 5 0.0 0.0 0.00 0.00 0.00 93 1014.5
20260831070156 53 5 0.0 0.0 0.00 0.00 0.00 93 1014.5
20260831070113 53 5 0.0 0.0 0.00 0.00 0.00 93 1014.5
20260831070001 53 5 0.0 0.0 0.00 0.00 0.00 93 1014.6
20260831065918 53 5 0.0 0.0 0.00 0.00 0.00 93 1014.6
20260831065523 53 5 0.0 0.0 0.00 0.00 0.00 93 1014.5
20260831065425 53 5 0.0 0.0 0.00 0.00 0.00 92 1014.5
20260831065030 53 5 0.0 0.0 0.00 0.00 0.00 92 1014.6
20260831064930 53 5 0.0 0.0 0.00 0.00 0.00 92 1014.6
20260831064603 53 5 0.0 0.0 0.00 0.00 0.00 92 1014.6
20260831064521 53 5 0.0 0.0 0.00 0.00 0.00 92 1014.6
20260831064438 53 5 0.0 0.0 0.00 0.00 0.00 92 1014.6
20260831064147 53 5 0.0 0.0 0.00 0.00 0.00 92 1014.6
20260831064105 53 5 0.0 0.0 0.00 0.00 0.00 92 1014.6
20260831063925 53 5 0.0 0.0 0.00 0.00 0.00 92 1014.6
20260831063530 53 5 0.0 0.0 0.00 0.00 0.00 92 1014.6
20260831063431 53 5 0.0 0.0 0.00 0.00 0.00 92 1014.7
20260831063014 54 5 0.0 0.0 0.00 0.00 0.00 92 1014.7
20260831062915 54 5 0.0 0.0 0.00 0.00 0.00 92 1014.7
20260831062521 54 5 0.0 0.0 0.00 0.00 0.00 92 1014.8
20260831062423 54 5 0.0 0.0 0.00 0.00 0.00 92 1014.8
20260831062027 54 5 0.0 0.0 0.00 0.00 0.00 93 1014.8
20260831061925 54 5 0.0 0.0 0.00 0.00 0.00 93 1014.9
20260831061528 54 5 0.0 0.0 0.00 0.00 0.00 92 1014.9
20260831061432 54 5 0.0 0.0 0.00 0.00 0.00 92 1015.0
20260831061019 54 5 0.0 0.0 0.00 0.00 0.00 92 1015.0
20260831060920 54 5 0.0 0.0 0.00 0.00 0.00 92 1015.0
20260831060527 54 5 0.0 0.0 0.00 0.00 0.00 92 1015.0
20260831060428 54 5 0.0 0.0 0.00 0.00 0.00 92 1015.0
20260831060025 54 5 0.0 0.0 0.00 0.00 0.00 92 1015.0
20260831055926 54 5 0.0 0.0 0.00 0.00 0.00 92 1015.0
20260831055532 54 5 0.0 0.0 0.00 0.00 0.00 91 1015.0
20260831055414 54 5 0.0 0.0 0.00 0.00 0.00 91 1015.1
20260831055021 54 5 0.0 0.0 0.00 0.00 0.00 91 1015.1
20260831054922 54 5 0.0 0.0 0.00 0.00 0.00 91 1015.1
20260831054526 54 5 0.0 0.0 0.00 0.00 0.00 91 1015.1
20260831054426 54 5 0.0 0.0 0.00 0.00 0.00 91 1015.2
20260831054032 54 5 0.0 0.0 0.00 0.00 0.00 91 1015.3
20260831053914 54 5 0.0 0.0 0.00 0.00 0.00 91 1015.3
20260831053519 54 5 0.0 0.0 0.00 0.00 0.00 91 1015.3
20260831053418 54 5 0.0 0.0 0.00 0.00 0.00 91 1015.4
20260831053022 55 5 0.0 0.0 0.00 0.00 0.00 91 1015.4
20260831052923 55 5 0.0 0.0 0.00 0.00 0.00 91 1015.3
20260831052525 55 5 0.0 0.0 0.00 0.00 0.00 91 1015.3
20260831052430 55 5 0.0 0.0 0.00 0.00 0.00 91 1015.3
20260831052033 55 5 0.0 0.0 0.00 0.00 0.00 90 1015.3
20260831051919 55 5 0.0 0.0 0.00 0.00 0.00 90 1015.3
20260831051521 55 5 0.0 0.0 0.00 0.00 0.00 90 1015.3
20260831051423 55 5 0.0 0.0 0.00 0.00 0.00 90 1015.3
20260831051023 55 5 0.0 0.0 0.00 0.00 0.00 90 1015.3
20260831050924 55 5 0.0 0.0 0.00 0.00 0.00 90 1015.3
20260831050531 55 5 0.0 0.0 0.00 0.00 0.00 90 1015.2
20260831050430 55 5 0.0 0.0 0.00 0.00 0.00 90 1015.3
20260831050027 56 5 0.0 0.0 0.00 0.00 0.00 90 1015.3
20260831045929 56 5 0.0 0.0 0.00 0.00 0.00 90 1015.3
20260831045516 56 5 0.0 0.0 0.00 0.00 0.00 90 1015.3
20260831045417 56 5 0.0 0.0 0.00 0.00 0.00 90 1015.3
20260831045023 56 5 0.0 0.0 0.00 0.00 0.00 89 1015.4
20260831044925 56 5 0.0 0.0 0.00 0.00 0.00 89 1015.4
20260831044532 56 5 0.0 0.0 0.00 0.00 0.00 89 1015.4
20260831044413 56 5 0.0 0.0 0.00 0.00 0.00 89 1015.5
20260831044019 56 5 0.0 0.0 0.00 0.00 0.00 89 1015.4
20260831043921 56 5 0.0 0.0 0.00 0.00 0.00 89 1015.4
20260831043527 57 5 0.0 0.0 0.00 0.00 0.00 89 1015.4
20260831043428 57 5 0.0 0.0 0.00 0.00 0.00 89 1015.4
20260831043014 57 5 0.0 0.0 0.00 0.00 0.00 88 1015.5
20260831042915 57 5 0.0 0.0 0.00 0.00 0.00 88 1015.5
20260831042520 57 5 0.0 0.0 0.00 0.00 0.00 88 1015.6
20260831042422 57 5 0.0 0.0 0.00 0.00 0.00 88 1015.6
20260831042027 57 5 0.0 0.0 0.00 0.00 0.00 87 1015.7
20260831041928 57 5 0.0 0.0 0.00 0.00 0.00 87 1015.7
20260831041514 58 5 0.0 0.0 0.00 0.00 0.00 87 1015.7
20260831041416 58 5 0.0 0.0 0.00 0.00 0.00 87 1015.7
20260831041022 58 5 0.0 0.0 0.00 0.00 0.00 87 1015.7
20260831040923 58 5 0.0 0.0 0.00 0.00 0.00 87 1015.8
20260831040529 58 5 0.0 0.0 0.00 0.00 0.00 87 1015.7
20260831040429 58 5 0.0 0.0 0.00 0.00 0.00 87 1015.7
20260831040020 58 5 0.0 1.0 0.00 0.00 0.00 86 1015.7
20260831035926 58 5 0.0 1.0 0.00 0.00 0.00 86 1015.7
20260831035526 59 5 0.0 2.0 0.00 0.00 0.00 86 1015.7
20260831035432 59 5 0.0 2.0 0.00 0.00 0.00 86 1015.7
20260831035033 59 5 0.0 2.0 0.00 0.00 0.00 86 1015.7
20260831034916 59 5 0.0 2.0 0.00 0.00 0.00 86 1015.8
20260831034515 59 16 0.0 1.0 0.00 0.00 0.00 86 1015.8
20260831034416 59 17 0.0 1.0 0.00 0.00 0.00 86 1015.8
20260831034020 59 15 0.0 1.0 0.00 0.00 0.00 86 1015.8
20260831033921 59 84 0.0 1.0 0.00 0.00 0.00 86 1015.8
20260831033526 59 199 0.0 2.0 0.00 0.00 0.00 86 1015.7
20260831033424 59 197 0.0 2.0 0.00 0.00 0.00 86 1015.7
20260831033027 59 150 1.0 4.0 0.00 0.00 0.00 86 1015.8
20260831032927 59 36 0.0 6.0 0.00 0.00 0.00 86 1015.6
20260831032532 59 222 0.0 6.0 0.00 0.00 0.00 86 1015.8
20260831032415 59 358 1.0 6.0 0.00 0.00 0.00 86 1015.7
20260831032021 59 144 1.0 6.0 0.00 0.00 0.00 86 1015.7
20260831031921 59 292 0.0 6.0 0.00 0.00 0.00 85 1015.7
20260831031525 59 223 1.0 6.0 0.00 0.00 0.00 85 1015.7
20260831031427 59 15 1.0 6.0 0.00 0.00 0.00 85 1015.7
20260831031030 59 278 1.0 2.0 0.00 0.00 0.00 85 1015.9
20260831030931 59 335 0.0 2.0 0.00 0.00 0.00 85 1015.8
20260831030519 60 140 0.0 3.0 0.00 0.00 0.00 84 1015.8
20260831030419 60 300 1.0 3.0 0.00 0.00 0.00 84 1015.9
20260831030030 60 300 1.0 3.0 0.00 0.00 0.00 84 1015.9
20260831025929 60 154 1.0 3.0 0.00 0.00 0.00 84 1016.0
20260831025532 60 243 0.0 3.0 0.00 0.00 0.00 84 1016.0
20260831025412 60 141 1.0 3.0 0.00 0.00 0.00 84 1016.0
20260831025020 60 338 0.0 3.0 0.00 0.00 0.00 83 1015.9
20260831024921 60 90 0.0 3.0 0.00 0.00 0.00 83 1016.0
20260831024527 60 171 1.0 4.0 0.00 0.00 0.00 83 1015.9
20260831024428 60 44 1.0 4.0 0.00 0.00 0.00 83 1015.9
20260831024028 60 244 1.0 4.0 0.00 0.00 0.00 82 1016.0
20260831023931 60 305 1.0 4.0 0.00 0.00 0.00 82 1015.9
20260831023530 60 284 0.0 5.0 0.00 0.00 0.00 82 1016.0
20260831023414 60 155 0.0 5.0 0.00 0.00 0.00 82 1015.9
20260831023015 61 264 0.0 5.0 0.00 0.00 0.00 82 1016.0
20260831022920 61 43 1.0 5.0 0.00 0.00 0.00 82 1016.0
20260831022525 61 47 1.0 4.0 0.00 0.00 0.00 81 1016.1
20260831022426 61 290 1.0 4.0 0.00 0.00 0.00 81 1016.1
20260831022027 61 281 1.0 3.0 0.00 0.00 0.00 81 1016.2
20260831021926 61 265 1.0 3.0 0.00 0.00 0.00 81 1016.2
20260831021530 61 150 1.0 3.0 0.00 0.00 0.00 81 1016.2
20260831021431 61 148 1.0 3.0 0.00 0.00 0.00 81 1016.2
20260831021032 61 220 0.0 2.0 0.00 0.00 0.00 81 1016.2
20260831020915 61 298 0.0 2.0 0.00 0.00 0.00 81 1016.3
20260831020522 62 302 1.0 3.0 0.00 0.00 0.00 81 1016.2
20260831020422 62 276 1.0 3.0 0.00 0.00 0.00 81 1016.3
20260831020014 62 266 1.0 3.0 0.00 0.00 0.00 81 1016.4
20260831015915 62 285 0.0 3.0 0.00 0.00 0.00 81 1016.3
20260831015518 62 218 0.0 4.0 0.00 0.00 0.00 80 1016.3
20260831015419 62 17 1.0 5.0 0.00 0.00 0.00 80 1016.3
20260831015022 62 205 0.0 5.0 0.00 0.00 0.00 80 1016.4
20260831014922 62 205 0.0 5.0 0.00 0.00 0.00 80 1016.4
20260831014527 62 228 1.0 5.0 0.00 0.00 0.00 80 1016.4
20260831014426 62 157 1.0 5.0 0.00 0.00 0.00 80 1016.4
20260831014029 63 32 1.0 5.0 0.00 0.00 0.00 79 1016.5
20260831013928 63 23 1.0 5.0 0.00 0.00 0.00 79 1016.4
20260831013531 63 300 1.0 4.0 0.00 0.00 0.00 79 1016.6
20260831013430 63 90 1.0 5.0 0.00 0.00 0.00 78 1016.6
20260831013014 63 240 1.0 5.0 0.00 0.00 0.00 78 1016.6
20260831012934 63 274 1.0 5.0 0.00 0.00 0.00 78 1016.6
20260831012530 64 298 1.0 5.0 0.00 0.00 0.00 77 1016.7
20260831012433 64 94 0.0 5.0 0.00 0.00 0.00 77 1016.6
20260831012030 64 203 1.0 5.0 0.00 0.00 0.00 76 1016.8
20260831011913 64 254 1.0 4.0 0.00 0.00 0.00 76 1016.7
20260831011514 64 79 1.0 8.0 0.00 0.00 0.00 76 1016.8
20260831011413 64 260 1.0 8.0 0.00 0.00 0.00 76 1016.7
20260831011017 65 195 3.0 9.0 0.00 0.00 0.00 75 1016.9
20260831010918 65 136 3.0 9.0 0.00 0.00 0.00 75 1016.8
20260831010525 65 170 3.0 9.0 0.00 0.00 0.00 74 1016.9
20260831010423 65 229 2.0 7.0 0.00 0.00 0.00 75 1016.8
20260831010015 65 225 2.0 5.0 0.00 0.00 0.00 75 1017.0
20260831005914 65 281 1.0 5.0 0.00 0.00 0.00 75 1017.0
20260831005516 65 300 1.0 7.0 0.00 0.00 0.00 75 1017.0
20260831005415 65 326 2.0 7.0 0.00 0.00 0.00 75 1017.1
20260831005020 66 72 2.0 7.0 0.00 0.00 0.00 74 1017.2
20260831004922 66 251 2.0 7.0 0.00 0.00 0.00 75 1017.2
20260831004525 66 53 1.0 5.0 0.00 0.00 0.00 74 1017.2
20260831004426 66 159 1.0 5.0 0.00 0.00 0.00 75 1017.2
20260831004029 66 81 1.0 5.0 0.00 0.00 0.00 75 1017.3
20260831003930 66 4 1.0 5.0 0.00 0.00 0.00 74 1017.3
20260831003534 66 36 1.0 5.0 0.00 0.00 0.00 74 1017.3
20260831003414 66 307 1.0 6.0 0.00 0.00 0.00 74 1017.3
20260831003017 67 297 1.0 6.0 0.00 0.00 0.00 73 1017.3
20260831002916 67 325 1.0 6.0 0.00 0.00 0.00 73 1017.3
20260831002520 67 93 2.0 6.0 0.00 0.00 0.00 72 1017.2
20260831002421 67 268 1.0 3.0 0.00 0.00 0.00 72 1017.3
20260831002024 67 135 1.0 5.0 0.00 0.00 0.00 71 1017.2
20260831001929 68 221 1.0 5.0 0.00 0.00 0.00 72 1017.2
20260831001529 68 264 1.0 5.0 0.00 0.00 0.00 71 1017.3
20260831001433 68 164 1.0 5.0 0.00 0.00 0.00 72 1017.3
20260831001033 67 288 0.0 5.0 0.00 0.00 0.00 72 1017.4
20260831000919 67 292 1.0 5.0 0.00 0.00 0.00 72 1017.4
20260831000522 67 257 2.0 6.0 0.00 0.00 0.00 72 1017.4
20260831000420 67 117 3.0 6.0 0.00 0.00 0.00 71 1017.4
20260831000031 67 309 2.0 6.0 0.00 0.00 0.00 72 1017.4
20260830235930 67 98 2.0 6.0 0.00 0.00 0.00 72 1017.5
20260830235517 67 297 2.0 6.0 0.00 0.00 0.00 72 1017.6
20260830235418 67 293 2.0 12.0 0.00 0.00 0.00 71 1017.5
20260830235022 68 299 2.0 12.0 0.00 0.00 0.00 71 1017.6
20260830234918 68 215 2.0 12.0 0.00 0.00 0.00 71 1017.6
20260830234521 68 237 1.0 4.0 0.00 0.00 0.00 70 1017.7
20260830234421 68 8 2.0 4.0 0.00 0.00 0.00 69 1017.7
20260830234024 68 245 1.0 4.0 0.00 0.00 0.00 71 1017.7
20260830233925 68 232 1.0 6.0 0.00 0.00 0.00 71 1017.7
20260830233531 68 303 1.0 6.0 0.00 0.00 0.00 71 1017.7
20260830233412 68 255 1.0 6.0 0.00 0.00 0.00 70 1017.8
20260830233016 68 216 2.0 5.0 0.00 0.00 0.00 71 1017.9
20260830232916 68 319 2.0 6.0 0.00 0.00 0.00 70 1017.9
20260830232520 67 300 2.0 6.0 0.00 0.00 0.00 70 1017.9
20260830232420 67 39 2.0 6.0 0.00 0.00 0.00 70 1018.0
20260830232023 67 113 3.0 7.0 0.00 0.00 0.00 71 1018.0
20260830231924 67 199 2.0 7.0 0.00 0.00 0.00 70 1018.0
20260830231530 67 228 3.0 7.0 0.00 0.00 0.00 70 1018.1
20260830231412 67 202 2.0 7.0 0.00 0.00 0.00 69 1018.2
20260830231018 68 321 3.0 7.0 0.00 0.00 0.00 69 1018.1
20260830230918 68 64 2.0 7.0 0.00 0.00 0.00 69 1018.1
20260830230522 68 105 1.0 7.0 0.00 0.00 0.00 69 1018.2
20260830230422 68 328 2.0 7.0 0.00 0.00 0.00 70 1018.2
20260830230016 68 250 2.0 6.0 0.00 0.00 0.00 69 1018.3
20260830225922 68 163 2.0 6.0 0.00 0.00 0.00 69 1018.3